Regional Weather Roundup
Issued by NWS

Home | Current Version | Previous Version | Text Only | Print | Product List | Glossary On
Versions: 1 2 3 4 5 6 7 8 9 10 11 12 13 14 15 16 17 18 19 20 21 22 23 24 25 26 27 28 29 30 31 32 33 34 35 36 37 38 39 40 41 42 43 44 45 46 47 48 49 50
000
ASUS43 KLMK 290510
RWRKY
KENTUCKY REGIONAL WEATHER ROUNDUP
NATIONAL WEATHER SERVICE LOUISVILLE KY
100 AM EDT TUE JUL 29 2014

NOTE "FAIR" INDICATES FEW OR NO CLOUDS BELOW 12,000 FEET
WITH NO SIGNIFICANT WEATHER AND/OR OBSTRUCTIONS TO VISIBILITY.

KYZ001>023-026-027-061>063-070>075-290600-
WESTERN AND SOUTH CENTRAL KENTUCKY

CITY           SKY/WX    TMP DP  RH WIND       PRES   REMARKS
PADUCAH        CLEAR     66  56  70 N7        30.08S
HENDERSON      CLEAR     63  54  72 NE9       30.08R
OWENSBORO      CLEAR     64  52  65 N9        30.08R
HOPKINSVILLE   CLEAR     66  58  74 NW6       30.07R
BOWLING GREEN  CLEAR     67  55  65 NW5       30.05S
GLASGOW        CLEAR     64  55  71 CALM      30.04S
$$

KYZ024-025-028>034-038-045-046-053-290600-
NORTH CENTRAL KENTUCKY

CITY           SKY/WX    TMP DP  RH WIND       PRES   REMARKS
LOUISVILLE/SDF CLEAR     63  47  55 NW13      30.05R
LOUISVILLE/LOU CLEAR     64  50  60 NW10      30.05R
FORT KNOX      MOCLDY    62  56  79 NW6       30.06R
$$

KYZ035>037-039>044-047>052-055>060-089>105-290600-
NORTHEAST KENTUCKY

CITY           SKY/WX    TMP DP  RH WIND       PRES   REMARKS
LEXINGTON      CLEAR     61  54  77 NW5       30.03S
COVINGTON      CLEAR     58  50  75 NW5       30.02S
FRANKFORT      CLEAR     58  56  93 NW3       30.03R
$$

KYZ054-064>069-076>088-106>120-290600-
SOUTHEAST KENTUCKY

CITY           SKY/WX    TMP DP  RH WIND       PRES   REMARKS
JACKSON        CLOUDY    63  57  81 NW8       30.01S
LONDON         CLOUDY    62  58  86 CALM      30.03R
SOMERSET       PTCLDY    61  61 100 CALM      30.04S
MIDDLESBORO    CLOUDY    61  60  95 CALM      30.03S
MONTICELLO     MOCLDY    64  63  97 CALM      30.05R FOG
$$



USA.gov is the U.S. government's official web portal to all federal, state and local government web resources and services.